Presure
341 337 334 334 333 335 342 357 371 370 388 396 426 603 373 232 303 308 318 318 301 290 246 251 241 149 231 233 232 222 202 212 215 188 221 242 242 273 277 253 245 230 217 213 228 221 208 206 211 209 205 203 204 201
360 357 363 360 360 370 371 371 406 414 416 416 424 511 401 385 308 161 153 322 306 285 270 254 245 227 181 136 224 232 175 220 230 239 248 258 187 277 248 241 237 232 214 206 229 220 211 201 202 210 209 201 201 198
422 427 418 414 418 421 402 392 396 397 403 415 417 449 463 383 324 294 294 178 293 179 289 301 301 257 155 256 166 248 167 244 295 269 149 240 261 245 232 235 233 238 211 214 223 222 212 207 203 209 213 210 203 202
392 381 365 367 373 381 383 391 399 471 434 432 430 444 486 383 371 304 276 280 272 297 291 315 284 274 253 275 217 232 251 188 272 251 242 239 238 238 232 237 226 223 210 210 207 225 211 209 200 209 211 210 207 202
510 421 391 400 316 370 370 390 403 457 447 449 460 479 174 368 323 316 279 272 266 303 311 282 271 276 304 276 255 196 267 249 175 245 251 252 265 237 233 232 219 214 221 214 215 219 220 215 201 203 208 207 204 203
450 531 539 508 154 456 407 398 455 467 461 467 495 534 249 356 337 270 263 201 246 228 294 279 282 264 254 200 244 256 201 256 268 233 207 237 246 227 214 213 222 226 225 216 218 222 210 209 211 207 209 209 205 200
434 452 511 555 540 519 506 439 480 472 477 458 459 333 323 287 258 283 273 178 255 251 254 274 258 250 231 246 241 251 220 245 171 251 235 202 244 234 215 236 244 226 220 213 221 217 211 212 208 205 202 205 209 204
328 340 328 319 316 334 310 317 321 312 255 310 241 242 280 226 257 257 256 251 257 234 248 228 214 191 225 221 235 240 216 219 213 234 226 236 241 205 204 227 233 235 232 227 212 216 211 209 214 213 208 209 210 208
266 281 295 273 283 282 303 275 263 290 259 248 270 265 227 249 247 243 236 240 235 224 231 223 203 235 242 224 221 223 221 217 244 231 235 242 253 225 212 210 237 231 222 226 212 215 216 211 213 217 216 210 205 203
260 266 268 267 286 283 292 278 267 255 233 241 254 214 243 254 236 246 238 233 243 224 237 240 186 230 242 229 208 226 226 223 235 243 242 227 220 239 213 221 217 225 233 219 215 215 218 202 202 211 215 213 209 209
240 263 279 243 282 267 241 267 254 264 265 234 251 249 226 249 232 255 246 233 241 218 244 245 232 218 219 226 233 211 229 231 233 222 183 235 218 224 232 222 240 232 227 227 220 220 219 215 212 216 218 215 211 212
231 244 236 234 260 263 272 231 249 263 261 251 249 257 249 226 245 240 245 240 250 229 201 243 243 243 227 198 206 242 268 295 243 228 233 233 225 224 220 233 226 222 220 222 222 212 207 212 213 213 215 214 216 218
235 248 238 239 241 242 240 241 243 271 252 274 278 253 245 223 239 230 258 241 238 249 245 219 227 233 225 259 279 269 207 275 263 243 237 241 239 237 222 230 222 222 229 226 223 215 214 213 211 202 215 211 213 215
245 266 272 249 235 245 241 230 252 271 284 254 249 247 253 237 237 248 258 232 242 236 245 251 222 234 240 262 261 259 242 243 253 203 212 215 219 230 232 225 235 235 240 242 234 232 231 226 216 220 223 223 225 228
241 241 239 242 246 265 285 247 255 286 271 253 242 231 237 237 248 241 249 218 212 189 212 232 208 210 243 248 232 216 212 235 224 228 227 222 227 236 231 228 230 227 225 221 223 227 227 225 226 229 229 230 233 238
237 229 233 231 241 233 234 241 252 248 242 272 250 243 251 242 246 242 244 248 242 238 236 238 235 234 199 229 245 244 229 217 234 229 232 237 233 234 234 230 228 229 231 232 230 229 230 229 233 236 237 247 250 235
252 262 262 251 236 235 252 249 241 230 225 232 230 236 250 247 265 264 263 235 242 240 240 261 260 213 236 240 233 222 223 227 249 250 225 229 230 227 226 237 250 251 247 244 242 242 250 250 252 225 224 226 227 231
239 239 233 247 252 254 260 259 232 224 248 241 239 240 235 239 226 230 253 241 228 236 239 232 226 261 260 259 226 230 234 243 249 251 241 233 227 224 226 226 225 224 224 225 225 227 227 225 225 227 233 238 238 237
225 232 236 241 240 239 242 247 251 259 261 260 252 238 232 255 257 251 251 240 243 252 253 256 258 256 243 241 243 245 245 239 238 243 245 239 232 228 225 226 228 230 227 228 228 228 230 235 240 241 241 244 247 249
238 241 242 243 233 236 237 242 236 240 247 249 251 250 252 258 263 259 254 250 256 254 253 252 249 244 245 248 251 256 256 256 250 245 244 243 212 238 235 234 233 235 237 241 243 243 241 248 249 251 254 257 255 254
237 246 240 255 246 241 248 244 233 238 245 245 248 248 253 251 246 245 246 245 244 245 249 252 253 254 252 247 245 245 243 240 240 245 252 254 253 250 249 249 248 247 250 260 259 255 255 258 259 260 260 264 275 270
260 242 261 255 259 260 247 252 254 257 243 246 245 246 253 256 251 248 247 245 245 242 244 247 249 250 250 250 250 249 249 248 249 250 251 252 252 253 255 258 262 263 249 251 255 260 265 271 272 271 270 270 278 277
232 235 233 258 272 239 239 233 253 261 258 275 272 271 266 252 233 237 249 242 239 244 256 261 258 253 249 248 253 254 256 254 247 253 256 262 262 258 252 254 259 262 263 270 276 278 280 281 282 282 282 287 287 290
259 249 251 254 252 234 205 208 251 239 248 273 261 249 261 268 262 269 272 262 276 281 278 270 264 267 266 268 270 272 270 269 270 274 273 271 270 267 262 255 258 280 289 288 287 287 288 290 292 292 292 292 293 304
267 269 280 292 299 284 273 290 274 254 268 223 231 280 243 245 253 260 272 283 259 238 238 250 252 254 255 256 258 263 281 282 262 262 269 289 295 296 293 294 292 292 292 291 292 293 292 293 294 295 303 301 301 302
321 310 328 346 310 303 306 316 314 318 320 324 290 282 284 285 282 282 284 265 273 291 259 253 255 259 270 286 278 270 274 287 286 290 284 284 275 286 292 296 296 298 303 304 306 306 306 297 299 304 313 326 366 408
323 317 321 327 329 340 326 330 344 317 308 318 311 308 309 318 317 301 299 303 303 301 299 308 294 289 305 297 291 300 302 301 309 311 308 304 305 304 304 303 299 300 301 306 309 315 318 327 341 385 407 398 391 386
324 320 314 318 320 326 324 328 341 348 356 360 355 349 347 324 316 312 314 310 305 303 311 296 303 307 304 304 305 306 307 307 306 304 305 302 306 311 324 324 323 323 339 352 354 404 406 398 393 392 390 385 381 375
331 334 341 348 356 428 424 386 414 414 409 405 338 338 349 352 351 351 350 351 352 348 339 323 324 325 322 318 319 320 323 327 328 349 353 352 352 352 361 416 411 407 402 400 397 393 388 383 376 374 374 377 383 385
326 330 337 420 409 407 404 392 376 392 403 402 401 402 400 402 377 404 406 408 409 389 366 352 347 347 347 345 342 339 339 336 331 364 360 409 403 400 395 390 386 383 381 376 375 243 379 383 388 386 382 380 385 394
331 404 402 397 397 393 392 388 389 392 393 390 395 399 403 404 406 406 404 405 408 410 408 407 407 405 404 404 402 402 399 397 394 390 385 384 381 379 376 376 379 381 388 391 390 389 393 408 446 457 475 479 480 480
410 396 389 383 381 379 379 381 385 391 395 393 398 400 397 384 385 383 388 387 389 387 386 387 385 382 382 376 372 377 377 377 376 375 377 382 387 395 405 442 487 496 500 500 498 496 493 489 488 486 486 488 488 486
385 378 374 370 368 369 372 374 382 389 387 385 385 383 377 378 380 380 379 377 371 362 359 364 376 378 375 372 375 377 381 387 408 506 521 524 519 510 504 505 508 512 508 503 493 489 485 487 491 491 490 490 488 482
Wind_Speed
26 31 34 36 37 40 41 39 36 38 39 47 49 57 85 66 90 89 93 90 91 90 85 80 81 27 71 76 75 78 68 69 70 47 61 57 55 41 37 38 42 44 43 41 40 39 38 41 40 39 40 40 40 44
24 25 31 35 38 35 36 36 31 32 36 45 50 49 90 86 86 46 23 83 79 79 81 76 73 76 46 24 75 72 45 74 68 61 51 43 38 31 35 41 40 42 45 42 42 39 41 43 45 44 42 40 44 46
13 18 22 25 26 29 29 26 27 32 37 45 52 55 65 86 83 73 70 26 67 32 67 65 65 65 37 61 38 58 40 50 45 48 30 49 34 42 42 37 40 40 44 43 42 44 45 46 47 47 45 45 46 48
13 16 21 24 24 24 23 23 26 46 42 44 48 49 47 85 81 72 59 60 59 60 59 56 56 52 47 47 37 43 44 35 51 56 56 54 51 43 43 37 41 45 46 43 44 46 46 48 48 48 48 48 49 52
19 15 16 20 23 24 24 25 23 40 45 45 43 42 41 74 65 66 57 53 49 54 52 38 37 40 38 39 41 37 46 50 34 58 56 58 51 49 48 45 44 49 47 44 47 47 47 49 49 49 51 52 52 53
51 30 22 26 23 25 32 31 32 42 43 43 40 41 70 67 62 48 49 25 49 55 39 38 37 40 36 27 36 39 38 44 37 50 46 51 49 45 39 43 45 43 46 47 48 48 49 50 49 49 51 53 55 56
56 47 43 30 28 31 32 33 40 47 46 43 52 73 72 66 60 56 56 29 58 53 49 37 42 34 46 23 31 39 38 42 41 46 53 38 48 47 40 44 49 46 47 49 50 49 51 52 53 52 52 55 58 58
86 86 92 93 92 94 88 91 90 86 69 79 71 71 83 45 74 68 62 56 46 56 51 55 48 32 45 36 36 38 45 35 49 50 47 53 52 38 40 44 44 48 53 53 49 54 55 56 56 55 55 57 59 61
53 72 92 60 76 76 89 70 67 86 73 70 85 82 47 73 70 65 60 55 60 59 42 45 42 53 46 47 50 49 45 44 56 53 55 52 49 46 45 47 49 50 50 53 54 57 58 58 58 59 61 60 61 64
48 46 52 45 76 77 86 84 74 63 44 62 82 30 68 72 62 54 55 58 49 57 46 48 41 52 47 53 54 52 47 46 52 63 60 44 41 49 48 54 53 55 58 57 57 58 59 58 61 62 64 65 67 69
32 49 70 30 70 54 37 60 55 67 68 51 69 72 46 66 53 66 66 56 55 36 53 51 47 43 41 42 50 37 57 55 56 53 38 55 46 50 56 55 58 56 60 63 61 61 61 63 64 65 67 69 71 74
25 28 28 26 31 45 62 27 35 56 67 60 65 67 63 37 66 57 58 53 54 42 38 53 54 53 43 41 44 53 52 60 70 58 62 63 60 52 54 57 58 61 63 64 64 62 64 66 67 69 72 74 77 80
22 21 23 23 26 27 24 26 25 56 36 60 60 60 59 21 51 39 57 53 45 54 44 29 32 36 39 42 42 47 39 53 68 73 63 69 69 67 58 66 66 68 70 69 68 68 69 70 70 68 76 78 81 84
21 19 22 17 16 23 26 27 20 49 43 45 44 50 62 41 40 52 52 36 43 38 43 46 36 37 39 41 44 47 42 49 56 51 50 53 56 65 69 67 72 74 75 72 71 72 73 76 77 80 83 85 88 90
16 16 17 18 17 17 31 25 32 36 48 48 40 28 37 36 50 41 50 37 37 36 43 37 39 39 40 43 43 45 47 46 47 52 57 60 64 67 67 68 69 69 69 69 72 74 76 78 81 84 86 88 92 95
17 15 15 18 18 20 19 16 19 19 23 41 45 43 50 43 46 42 44 51 48 45 43 47 44 43 41 42 47 49 49 50 55 58 62 65 65 65 67 69 70 72 73 75 76 78 80 82 85 88 90 92 91 89
16 18 22 22 19 19 24 28 27 28 31 26 28 28 32 34 45 52 51 37 43 44 46 53 56 47 49 51 51 53 54 57 60 63 63 64 63 65 66 69 74 75 76 78 80 82 84 85 86 82 85 87 90 94
20 20 23 20 20 21 22 27 28 30 34 34 35 36 39 38 44 42 40 43 45 46 46 48 50 47 48 51 56 59 61 61 61 63 66 67 67 68 70 70 70 71 73 75 77 80 82 83 85 89 93 95 96 97
26 25 25 25 28 28 27 26 26 29 34 37 40 41 40 42 43 44 45 48 50 49 49 48 48 50 55 58 59 60 61 64 65 65 66 70 72 72 71 73 76 76 78 80 83 85 88 91 94 95 97 99 100 102
31 31 32 32 31 32 32 33 36 36 37 38 40 40 40 40 42 45 47 48 49 50 52 54 56 58 58 58 59 61 62 65 67 68 69 71 58 75 77 78 79 81 84 87 88 90 91 94 95 97 98 99 101 104
34 36 36 40 40 37 39 40 39 41 42 43 43 43 44 46 46 47 49 51 52 53 53 55 57 59 62 63 64 65 66 67 68 70 72 74 77 80 82 84 85 86 89 90 91 91 93 95 97 100 101 104 107 108
48 37 47 46 49 49 47 48 49 50 48 49 48 47 49 50 51 52 53 55 56 57 58 60 62 63 65 67 69 70 71 73 74 76 77 79 82 85 87 88 89 90 87 89 92 96 99 100 101 102 103 104 108 110
38 39 39 48 53 41 43 40 49 54 53 56 56 55 57 54 51 53 58 56 57 59 64 67 68 69 69 70 73 75 77 78 77 81 84 86 86 85 85 87 91 93 95 100 102 102 103 104 106 107 109 112 114 116
56 52 53 55 55 46 28 31 53 50 52 59 58 52 56 59 56 61 66 62 66 69 71 71 71 71 72 73 75 78 81 84 85 87 87 88 89 91 90 87 90 99 101 101 102 104 106 107 110 111 112 114 116 120
61 65 71 76 75 74 69 75 69 57 62 43 50 68 54 56 59 64 70 76 69 62 62 67 69 71 73 74 77 80 86 87 83 84 87 91 93 95 97 99 100 101 103 104 106 107 108 110 112 113 116 115 116 116
51 58 51 46 65 68 68 70 70 70 71 74 78 75 77 77 75 74 74 71 74 80 73 72 73 76 83 89 90 88 89 92 93 93 90 92 92 96 99 101 103 105 107 108 109 110 111 110 112 115 118 118 103 81
41 49 49 50 53 52 56 60 61 69 71 73 76 77 78 79 82 83 85 85 86 86 86 87 89 90 89 91 92 93 92 92 92 94 96 98 99 100 102 104 104 105 107 109 111 113 114 115 111 92 80 81 82 83
41 47 53 54 54 56 57 56 54 54 55 57 60 63 66 76 79 80 81 82 81 80 82 80 83 86 87 88 90 92 93 94 94 95 96 97 99 101 103 104 105 106 105 102 101 80 78 79 80 81 81 82 84 85
44 45 45 46 47 29 25 31 24 26 30 34 49 54 57 61 63 65 67 70 73 76 80 84 86 87 88 89 89 89 91 91 92 89 89 90 91 92 89 70 71 72 74 75 76 77 79 80 83 84 85 86 85 85
45 47 49 30 28 25 24 26 29 27 27 29 32 33 35 36 46 41 43 45 47 58 65 70 72 73 74 74 76 77 79 79 81 73 74 61 62 65 66 69 71 73 75 78 80 51 83 83 84 84 85 86 86 86
55 42 34 32 29 27 27 27 27 29 30 30 31 31 32 34 35 36 38 39 41 41 42 43 45 46 48 49 51 51 53 54 55 57 59 60 62 65 67 70 72 75 77 78 79 81 83 85 81 79 75 72 69 66
32 32 29 28 26 25 25 25 27 30 31 30 30 31 31 31 32 32 32 33 34 36 37 38 40 41 43 45 47 48 50 52 54 56 59 61 63 65 67 70 64 63 62 61 61 61 61 62 62 62 62 61 59 57
29 27 27 27 27 27 26 26 24 23 22 22 23 25 25 26 27 28 29 30 31 32 34 36 38 39 40 42 44 46 48 49 50 46 45 44 44 46 47 48 49 49 50 51 53 54 55 56 55 55 54 53 51 50
Wind_Direction
192 198 205 212 218 226 232 234 229 219 217 203 200 177 196 208 209 211 215 216 220 223 220 223 224 223 228 233 236 240 243 247 250 245 256 255 257 245 230 238 244 244 251 252 252 254 259 266 268 265 264 272 277 278
207 214 219 218 222 225 223 227 217 200 198 197 195 169 191 192 204 213 215 211 215 220 222 225 222 221 222 211 233 235 229 242 243 242 238 229 243 227 229 236 244 239 248 257 256 258 258 262 267 268 270 272 276 279
166 192 198 200 194 178 179 179 183 185 186 186 186 183 193 186 197 200 201 206 209 193 219 224 228 224 223 229 228 235 228 239 221 219 245 239 225 222 227 230 238 247 246 252 259 257 260 262 267 271 273 273 275 278
122 137 144 145 147 155 162 169 170 158 167 171 172 181 179 180 180 192 189 194 199 204 209 207 218 221 224 228 230 229 227 230 216 219 228 228 223 224 225 228 234 240 245 250 255 258 261 264 269 272 274 276 278 280
101 129 141 177 159 152 152 159 158 158 157 162 170 175 209 170 179 181 180 183 189 195 202 206 205 211 209 210 211 226 213 218 230 224 217 218 218 223 227 228 241 248 246 250 256 260 262 264 268 273 277 279 280 283
51 92 135 174 191 183 152 147 158 155 154 154 158 167 158 154 159 167 165 183 178 190 180 171 184 177 186 212 208 206 227 216 215 225 235 235 223 233 244 250 239 242 250 254 257 261 263 266 269 272 275 279 281 283
69 57 69 114 154 162 165 164 161 157 159 161 143 131 135 142 153 143 149 206 162 163 162 163 162 167 195 200 211 208 226 212 243 226 233 248 234 238 249 243 246 248 253 255 260 263 264 265 267 270 275 277 278 281
92 90 95 99 101 101 110 111 113 116 144 126 157 156 132 153 148 149 151 160 150 182 170 193 191 196 198 214 194 202 223 227 236 231 231 238 236 253 258 252 253 253 254 259 263 265 267 270 272 274 275 277 279 281
92 109 110 110 115 121 113 130 141 124 144 151 134 139 168 154 158 164 173 170 186 194 184 186 209 186 187 203 213 222 221 231 220 234 235 232 231 249 254 260 255 256 259 259 263 266 268 271 274 277 277 279 281 282
108 110 117 115 124 125 126 132 138 150 163 163 144 180 161 148 172 154 170 185 175 197 189 189 227 184 180 194 227 228 233 236 233 229 237 247 252 241 255 256 259 261 260 260 262 265 270 271 273 276 278 280 281 283
95 123 128 97 131 129 138 145 144 144 142 170 159 162 184 161 176 160 176 192 183 211 198 198 206 205 205 207 217 241 234 239 241 245 255 244 248 251 254 258 262 260 262 263 265 268 271 272 275 279 280 281 283 284
107 108 113 114 123 145 141 140 151 149 155 157 162 158 160 197 175 186 186 195 189 207 203 202 206 210 216 231 241 233 229 225 235 242 243 244 251 255 258 261 258 261 263 265 267 270 273 275 278 280 281 283 285 286
129 128 126 133 128 127 132 136 139 158 166 162 165 168 177 197 189 201 195 204 203 202 210 211 213 220 229 233 222 228 243 231 230 233 243 244 249 255 260 261 261 263 265 267 268 269 272 275 280 283 283 284 285 287
115 112 137 151 146 154 152 148 162 171 168 175 173 180 179 192 198 198 200 212 213 217 221 221 214 227 234 233 230 232 236 236 237 253 253 257 260 260 259 261 261 264 266 268 271 274 276 279 279 279 281 283 285 287
134 137 140 137 144 158 169 176 172 175 184 184 188 194 199 205 206 212 213 220 220 226 226 229 221 224 250 249 241 240 245 245 247 248 249 254 256 256 259 263 265 267 269 271 274 275 276 278 279 281 283 285 286 288
169 172 173 180 176 179 177 180 192 191 185 190 196 204 208 217 220 219 221 223 227 231 236 241 242 242 244 242 250 250 247 249 251 254 255 253 256 258 259 263 266 269 272 274 276 276 277 278 280 282 284 286 287 289
161 170 183 195 202 203 199 199 198 196 195 201 204 212 219 221 218 222 226 230 232 235 239 243 245 241 247 249 249 250 252 254 252 252 253 255 258 260 263 265 268 269 271 272 274 276 277 279 281 285 287 288 290 291
193 193 193 190 194 203 207 212 214 220 218 222 219 218 218 227 217 224 239 234 231 237 240 240 242 244 244 246 251 252 252 253 255 255 255 256 258 261 263 266 269 272 274 275 277 278 280 283 285 287 287 289 290 291
214 212 214 212 204 206 213 218 221 222 223 225 228 234 236 229 227 231 233 236 238 241 243 244 246 247 246 248 250 252 253 255 256 256 256 256 259 263 267 269 271 274 276 278 279 281 282 283 285 286 287 287 289 291
233 237 237 233 226 224 222 227 226 227 228 231 233 236 237 237 235 235 239 243 244 246 247 249 252 254 255 256 257 257 258 258 260 261 262 263 267 266 269 272 274 276 277 278 280 281 282 282 284 285 287 288 290 292
243 245 240 245 242 241 243 242 237 237 239 240 239 238 239 239 241 243 244 246 247 250 252 253 254 256 256 258 260 262 263 264 265 265 266 267 268 269 271 273 275 277 279 280 281 282 282 284 285 286 288 289 290 291
254 250 253 254 254 253 253 256 253 251 248 248 247 247 249 247 244 244 246 248 251 254 256 257 258 259 259 261 262 264 266 268 269 271 272 273 274 274 275 277 278 278 279 281 284 285 286 287 287 288 288 290 293 294
251 256 254 262 255 248 249 248 256 257 259 257 255 255 254 252 250 251 255 252 253 256 257 257 257 259 260 262 262 264 265 267 271 270 271 271 273 275 278 279 281 282 284 284 285 286 288 289 290 291 292 293 293 294
256 261 262 261 261 253 254 260 253 253 256 257 257 256 259 260 257 259 259 259 262 260 259 259 261 262 263 265 268 268 269 270 271 273 274 275 277 279 281 284 285 284 284 286 287 287 288 289 289 290 291 292 293 294
265 267 267 264 260 258 259 257 256 261 263 268 261 259 260 261 263 263 263 260 260 265 267 264 266 267 269 271 273 274 274 273 274 275 276 277 278 280 281 282 283 283 284 285 286 287 288 289 290 291 292 293 294 295
259 261 258 254 256 258 259 256 257 255 253 254 258 261 262 262 262 263 263 262 263 262 266 269 271 271 270 269 270 273 274 274 274 275 277 279 281 282 283 283 284 285 285 286 287 287 288 289 290 292 292 293 293 294
262 261 259 258 258 260 263 262 259 260 261 259 260 259 259 258 259 262 263 263 264 265 266 266 267 269 270 271 273 274 275 276 277 277 278 279 280 282 283 284 285 285 286 286 287 288 289 289 290 291 292 293 293 294
268 264 264 265 266 266 268 269 269 267 265 262 258 257 257 259 260 262 262 264 265 266 266 268 268 268 270 271 272 273 275 276 278 279 280 281 281 281 282 282 283 284 285 285 286 288 289 290 290 291 291 292 293 294
293 291 292 297 294 291 284 280 277 272 266 260 262 260 258 258 259 259 261 262 263 264 265 267 267 268 270 271 273 274 275 275 276 278 279 280 281 281 282 287 287 288 288 289 289 290 290 291 292 293 293 293 294 294
294 293 299 302 296 291 283 278 277 277 272 269 266 265 263 264 263 264 265 267 268 265 267 267 269 270 271 271 273 274 275 277 278 281 282 286 286 287 288 289 289 290 290 290 291 302 291 291 291 291 292 292 292 292
300 306 302 299 296 295 293 289 286 282 277 274 273 272 271 271 272 273 274 275 276 277 277 278 279 280 282 284 285 286 287 287 287 288 288 288 289 289 290 290 290 290 291 291 291 290 291 291 291 292 292 292 292 292
303 302 301 300 300 299 297 293 290 287 285 283 279 276 275 277 277 279 279 279 280 281 282 283 284 285 286 287 288 289 289 290 291 292 293 294 294 295 295 296 297 298 298 298 297 297 296 295 294 294 293 293 293 293
301 301 301 301 300 297 296 294 293 288 283 281 281 282 283 282 280 281 283 283 285 286 287 288 289 290 291 292 293 294 295 296 298 304 305 307 308 308 308 308 308 308 307 307 306 304 303 301 299 297 295 294 293 292